ワイズ彗星

356P/WISE (2017)

English version
Home page
Updated on March 16, 2018

---------------------------------------------------------------------

・ プロフィール

符号 356P/2017 O2
検出日 2017年7月30日
検出光度 21.1等
検出者 Pan-STARRS 1 telescope (Haleakala)

・ 写真集

・ 軌道要素

Epoch 2018 Jan. 2.0 TT = JDT 2458120.5
T 2017 Dec. 17.10650 TT                                 MPCW
q   2.6897077            (2000.0)            P               Q
n   0.11597496     Peri.  226.16992     +0.88783353     -0.45686767
a   4.1644714      Node   160.80884     +0.45541821     +0.85526119
e   0.3541299      Incl.    9.62941     +0.06592323     +0.24454084
P   8.50
From 162 observations 2009 Nov. 9-2018 Feb. 9, mean residual 0".7.

・ 光度変化

        m1 = 12.5 + 5 logΔ + 10.0 log r

---------------------------------------------------------------------

軌道要素はM.P.E.C. 2018-D91に掲載されたものです。
光度グラフはComet for Windowsで作成したものです。

---------------------------------------------------------------------

Copyright(C) Seiichi Yoshida (comet@aerith.net). All rights reserved.